EW3070 Weather Reports


Display with metric or nautical units.
time (UTC)temp
F
wind
direction
speed
MPH
gust
MPH
rain 1hr
in
rain 24hr
in
rain mn
in
humidity
%
barometer
mb
20260507095521 53 288 0.0 0.0 0.00 0.01 0.00 91 1016.7
20260507095016 53 288 0.0 0.0 0.00 0.01 0.00 91 1016.8
20260507094531 53 288 0.0 0.0 0.00 0.01 0.00 91 1016.7
20260507094027 53 288 0.0 0.0 0.00 0.01 0.00 91 1016.8
20260507093522 53 288 0.0 0.0 0.00 0.01 0.00 91 1016.9
20260507093016 53 288 0.0 0.0 0.00 0.01 0.00 90 1017.0
20260507092531 54 288 0.0 0.0 0.00 0.01 0.00 90 1017.0
20260507092026 54 288 0.0 0.0 0.00 0.01 0.00 90 1016.9
20260507091525 54 288 0.0 0.0 0.00 0.01 0.00 90 1017.0
20260507091020 54 288 0.0 0.0 0.00 0.01 0.00 90 1017.0
20260507090516 54 288 0.0 0.0 0.00 0.01 0.00 90 1017.1
20260507090050 54 288 0.0 0.0 0.00 0.01 0.00 90 1017.1
20260507085524 54 288 0.0 0.0 0.00 0.01 0.00 89 1017.1
20260507085020 55 288 0.0 0.0 0.00 0.01 0.00 89 1017.2
20260507084514 55 288 0.0 0.0 0.00 0.01 0.00 89 1017.3
20260507084029 55 288 0.0 0.0 0.00 0.01 0.00 89 1017.3
20260507083545 55 288 0.0 0.0 0.00 0.01 0.00 89 1017.4
20260507083022 55 288 0.0 0.0 0.00 0.01 0.00 90 1017.5
20260507082517 55 288 0.0 0.0 0.00 0.01 0.00 89 1017.5
20260507082013 55 288 0.0 1.0 0.00 0.01 0.00 89 1017.5
20260507081529 55 288 0.0 1.0 0.00 0.01 0.00 89 1017.5
20260507081023 55 288 0.0 0.0 0.00 0.01 0.00 89 1017.6
20260507080539 55 288 0.0 0.0 0.00 0.01 0.01 89 1017.6
20260507080012 55 288 0.0 0.0 0.00 0.01 0.01 88 1017.7
20260507075528 55 288 0.0 0.0 0.00 0.01 0.01 88 1017.6
20260507075026 56 288 0.0 0.0 0.00 0.01 0.01 88 1017.6
20260507074521 56 288 0.0 2.0 0.00 0.01 0.01 88 1017.6
20260507074017 56 288 0.0 2.0 0.00 0.01 0.01 88 1017.5
20260507073532 56 45 0.0 0.0 0.00 0.01 0.01 87 1017.6
20260507073026 56 45 0.0 2.0 0.00 0.01 0.01 87 1017.6
20260507072521 56 45 0.0 2.0 0.00 0.01 0.01 87 1017.6
20260507072016 56 57 0.0 2.0 0.00 0.01 0.01 87 1017.6
20260507071515 56 90 0.0 2.0 0.00 0.01 0.01 86 1017.7
20260507071029 56 336 0.0 0.0 0.00 0.01 0.01 86 1017.5
20260507070524 56 336 0.0 0.0 0.00 0.02 0.01 86 1017.7
20260507070018 57 336 0.0 0.0 0.00 0.02 0.01 86 1017.6
20260507065513 57 336 0.0 0.0 0.00 0.02 0.01 86 1017.8
20260507065049 57 336 0.0 0.0 0.00 0.02 0.01 86 1017.9
20260507064522 57 336 0.0 0.0 0.00 0.02 0.01 86 1018.0
20260507064017 57 336 0.0 0.0 0.00 0.02 0.01 86 1018.0
20260507063553 57 336 0.0 0.0 0.00 0.02 0.01 85 1018.1
20260507063026 57 336 0.0 0.0 0.00 0.02 0.01 85 1018.1
20260507062521 57 336 0.0 0.0 0.00 0.02 0.01 85 1018.0
20260507062020 58 336 0.0 0.0 0.00 0.02 0.01 85 1018.0
20260507061516 58 336 0.0 0.0 0.00 0.02 0.01 85 1018.0
20260507061031 58 336 0.0 0.0 0.00 0.02 0.01 85 1018.0
20260507060527 58 336 0.0 0.0 0.00 0.02 0.01 86 1018.0
20260507060021 58 336 0.0 0.0 0.00 0.02 0.01 85 1018.0
20260507055537 58 336 0.0 0.0 0.00 0.02 0.01 84 1018.0
20260507055032 59 336 0.0 0.0 0.00 0.02 0.01 85 1018.0
20260507054527 59 336 0.0 0.0 0.00 0.02 0.01 85 1018.0
20260507054047 59 336 0.0 0.0 0.00 0.02 0.01 84 1018.0
20260507053521 59 336 0.0 0.0 0.00 0.02 0.01 84 1017.9
20260507053036 59 336 0.0 0.0 0.00 0.02 0.01 84 1018.0
20260507052530 60 336 0.0 0.0 0.00 0.02 0.01 84 1018.0
20260507052025 60 336 0.0 0.0 0.00 0.02 0.01 84 1018.1
20260507051520 60 336 0.0 1.0 0.00 0.02 0.01 83 1018.1
20260507051015 60 336 0.0 1.0 0.00 0.02 0.01 83 1018.0
20260507050530 60 336 0.0 2.0 0.00 0.02 0.01 83 1018.0
20260507050029 60 336 1.0 2.0 0.00 0.02 0.01 83 1018.0
20260507045545 61 338 1.0 3.0 0.00 0.02 0.01 82 1018.0
20260507045019 61 5 2.0 4.0 0.00 0.02 0.01 82 1018.0
20260507044514 61 5 2.0 4.0 0.00 0.02 0.01 81 1017.9
20260507044029 61 24 2.0 3.0 0.00 0.02 0.01 81 1018.0
20260507043524 61 298 1.0 3.0 0.00 0.02 0.01 81 1017.9
20260507043019 61 307 1.0 3.0 0.00 0.02 0.01 81 1017.9
20260507042535 62 309 0.0 4.0 0.00 0.02 0.01 80 1017.9
20260507042029 62 319 1.0 5.0 0.00 0.02 0.01 80 1017.8
20260507041528 62 339 2.0 5.0 0.00 0.02 0.01 79 1017.9
20260507041024 62 316 2.0 5.0 0.00 0.02 0.01 79 1017.9
20260507040519 62 325 2.0 5.0 0.00 0.03 0.01 78 1017.9
20260507040013 62 317 3.0 5.0 0.00 0.03 0.01 78 1017.8
20260507035550 62 299 3.0 5.0 0.00 0.03 0.01 77 1017.7
20260507035023 62 279 1.0 4.0 0.00 0.03 0.01 76 1017.5
20260507034539 63 300 2.0 4.0 0.00 0.03 0.01 76 1017.6
20260507034014 63 271 1.0 3.0 0.00 0.03 0.01 76 1017.5
20260507033529 63 276 1.0 3.0 0.00 0.03 0.01 76 1017.5
20260507033028 63 304 0.0 2.0 0.00 0.03 0.01 74 1017.4
20260507032522 63 304 0.0 2.0 0.00 0.03 0.01 73 1017.3
20260507032017 63 262 0.0 3.0 0.00 0.03 0.01 72 1017.2
20260507031532 63 262 0.0 3.0 0.00 0.03 0.01 72 1017.2
20260507031027 64 5 0.0 4.0 0.00 0.03 0.01 71 1017.1
20260507030523 64 47 1.0 4.0 0.00 0.03 0.01 71 1017.0
20260507030016 64 355 0.0 6.0 0.00 0.03 0.01 71 1017.1
20260507025532 64 271 2.0 6.0 0.00 0.03 0.01 70 1017.0
20260507025027 64 14 2.0 5.0 0.00 0.03 0.01 70 1016.9
20260507024547 65 355 2.0 5.0 0.00 0.03 0.01 69 1016.9
20260507024041 65 320 0.0 6.0 0.00 0.03 0.01 69 1016.8
20260507023515 65 355 3.0 6.0 0.00 0.03 0.01 68 1016.7
20260507023030 65 317 4.0 6.0 0.00 0.03 0.01 68 1016.7
20260507022525 66 26 3.0 8.0 0.00 0.03 0.01 67 1016.7
20260507022020 66 340 2.0 8.0 0.00 0.03 0.01 66 1016.7
20260507021535 66 325 3.0 8.0 0.00 0.03 0.01 66 1016.7
20260507021029 66 301 1.0 6.0 0.00 0.03 0.01 65 1016.7
20260507020524 67 280 4.0 8.0 0.00 0.04 0.01 65 1016.6
20260507020023 67 296 3.0 9.0 0.00 0.04 0.01 63 1016.6
20260507015519 67 319 4.0 9.0 0.00 0.04 0.01 63 1016.5
20260507015014 67 286 5.0 8.0 0.00 0.04 0.01 62 1016.5
20260507014530 68 334 3.0 8.0 0.00 0.04 0.01 61 1016.4
20260507014024 68 304 3.0 10.0 0.00 0.04 0.01 60 1016.4
20260507013519 69 313 5.0 10.0 0.00 0.04 0.01 59 1016.5
20260507013014 69 42 2.0 6.0 0.00 0.04 0.01 60 1016.5
20260507012513 69 16 3.0 6.0 0.00 0.04 0.01 60 1016.4
20260507012028 69 334 2.0 8.0 0.00 0.04 0.01 60 1016.4
20260507011524 69 323 4.0 8.0 0.00 0.04 0.01 60 1016.4
20260507011040 70 308 3.0 8.0 0.00 0.04 0.01 59 1016.4
20260507010554 70 276 4.0 8.0 0.00 0.05 0.01 58 1016.5
20260507010028 70 295 3.0 7.0 0.00 0.05 0.01 58 1016.4
20260507005522 70 344 3.0 6.0 0.00 0.05 0.01 57 1016.4
20260507005017 70 19 2.0 8.0 0.00 0.05 0.01 58 1016.3
20260507004533 70 295 3.0 9.0 0.00 0.05 0.01 58 1016.3
20260507004028 70 313 4.0 9.0 0.00 0.05 0.01 58 1016.3
20260507003548 71 331 4.0 8.0 0.00 0.05 0.01 58 1016.3
20260507003023 70 23 3.0 11.0 0.00 0.05 0.01 59 1016.3
20260507002537 70 299 4.0 8.0 0.00 0.05 0.01 59 1016.3
20260507002032 70 355 2.0 10.0 0.00 0.05 0.01 59 1016.3
20260507001527 70 350 4.0 10.0 0.00 0.05 0.01 59 1016.1
20260507001023 70 19 3.0 13.0 0.00 0.05 0.01 60 1016.3
20260507000518 70 272 7.0 13.0 0.00 0.05 0.01 60 1016.1
20260507000053 71 321 5.0 9.0 0.00 0.05 0.01 60 1016.1
20260506235527 70 304 3.0 17.0 0.00 0.05 0.01 60 1016.2
20260506235026 71 284 7.0 17.0 0.00 0.05 0.01 60 1016.1
20260506234521 71 309 6.0 12.0 0.00 0.05 0.01 58 1016.1
20260506234017 71 5 3.0 9.0 0.00 0.05 0.01 58 1016.0
20260506233532 71 9 2.0 11.0 0.00 0.05 0.01 58 1016.0
20260506233047 71 355 5.0 11.0 0.00 0.05 0.01 59 1016.0
20260506232520 71 301 4.0 11.0 0.00 0.05 0.01 60 1016.1
20260506232015 71 268 6.0 12.0 0.00 0.05 0.01 59 1016.0
20260506231551 72 288 6.0 12.0 0.00 0.05 0.01 58 1015.9
20260506231030 72 278 3.0 10.0 0.00 0.05 0.01 58 1015.9
20260506230545 72 344 5.0 12.0 0.00 0.05 0.01 58 1016.1
20260506230019 71 182 8.0 13.0 0.00 0.05 0.01 58 1015.9
20260506225515 71 304 9.0 13.0 0.00 0.05 0.01 56 1016.0
20260506225029 72 333 4.0 11.0 0.00 0.05 0.01 56 1016.0
20260506224545 72 224 5.0 14.0 0.00 0.05 0.01 57 1016.1
20260506224018 71 26 8.0 14.0 0.00 0.05 0.01 58 1016.1
20260506223513 71 329 5.0 14.0 0.00 0.05 0.01 59 1016.1
20260506223029 71 317 8.0 17.0 0.00 0.05 0.01 59 1016.2
20260506222544 71 275 8.0 17.0 0.00 0.05 0.01 59 1016.2
20260506222021 71 283 7.0 16.0 0.00 0.05 0.01 59 1016.2
20260506221516 71 305 7.0 16.0 0.00 0.05 0.01 59 1016.1
20260506221031 72 319 6.0 14.0 0.00 0.05 0.01 59 1016.1
20260506220548 72 274 4.0 16.0 0.00 0.06 0.01 59 1016.3
20260506220022 71 313 6.0 16.0 0.00 0.06 0.01 59 1016.3
20260506215538 71 224 7.0 13.0 0.00 0.06 0.01 59 1016.4
20260506215013 71 55 7.0 14.0 0.00 0.06 0.01 60 1016.5
20260506214549 71 281 7.0 16.0 0.00 0.06 0.01 60 1016.4
20260506214044 71 300 9.0 16.0 0.00 0.06 0.01 60 1016.6
20260506213523 71 57 5.0 14.0 0.00 0.06 0.01 61 1016.5
20260506213037 71 330 9.0 14.0 0.00 0.06 0.01 60 1016.5
20260506212553 71 298 6.0 13.0 0.00 0.06 0.01 60 1016.6
20260506212027 71 295 7.0 15.0 0.00 0.06 0.01 60 1016.6
20260506211543 71 274 5.0 15.0 0.00 0.06 0.01 60 1016.6
20260506211017 71 298 5.0 15.0 0.00 0.06 0.01 60 1016.7
20260506210530 71 340 7.0 15.0 0.00 0.06 0.01 59 1016.7
20260506210026 72 318 7.0 14.0 0.00 0.06 0.01 59 1016.6
20260506205521 72 272 7.0 14.0 0.00 0.06 0.01 60 1016.6
20260506205016 71 311 6.0 16.0 0.00 0.06 0.01 60 1016.8
20260506204551 71 238 7.0 16.0 0.00 0.06 0.01 59 1016.8
20260506204029 72 286 6.0 13.0 0.00 0.06 0.01 57 1016.7
20260506203523 73 72 6.0 14.0 0.00 0.06 0.01 56 1016.7
20260506203018 73 269 5.0 14.0 0.00 0.06 0.01 55 1016.6
20260506202532 74 291 4.0 10.0 0.00 0.06 0.01 54 1016.6
20260506202028 73 232 4.0 10.0 0.00 0.06 0.01 54 1016.7
20260506201522 74 338 5.0 11.0 0.00 0.06 0.01 53 1016.8
20260506201017 74 313 4.0 18.0 0.00 0.06 0.01 54 1016.8
20260506200532 74 298 8.0 18.0 0.00 0.06 0.01 51 1016.8
20260506200025 74 311 2.0 7.0 0.00 0.06 0.01 51 1016.9
20260506195524 73 103 1.0 10.0 0.00 0.06 0.01 52 1017.0
20260506195020 73 303 4.0 10.0 0.00 0.06 0.01 51 1017.2
20260506194535 73 288 4.0 13.0 0.00 0.06 0.01 51 1017.2
20260506194030 73 250 6.0 13.0 0.00 0.06 0.01 52 1017.1
20260506193525 72 220 3.0 11.0 0.00 0.06 0.01 53 1017.2
20260506193020 72 323 5.0 11.0 0.00 0.06 0.01 52 1017.2
20260506192515 72 281 4.0 10.0 0.00 0.06 0.01 51 1017.1
20260506192014 73 78 3.0 8.0 0.00 0.06 0.01 49 1017.3
20260506191530 72 299 1.0 7.0 0.00 0.06 0.01 52 1017.3
20260506191025 72 325 1.0 11.0 0.00 0.06 0.01 53 1017.4
20260506190520 72 299 4.0 11.0 0.00 0.06 0.01 52 1017.4
20260506190015 72 17 3.0 8.0 0.00 0.06 0.01 51 1017.4
20260506185529 72 69 2.0 8.0 0.00 0.06 0.01 52 1017.5
20260506185024 72 123 3.0 11.0 0.00 0.06 0.01 51 1017.5
20260506184518 72 232 2.0 11.0 0.00 0.06 0.01 51 1017.6
20260506184016 72 59 2.0 8.0 0.00 0.06 0.01 51 1017.6
20260506183531 71 251 0.0 9.0 0.00 0.06 0.01 54 1017.6
20260506183047 71 254 1.0 4.0 0.00 0.06 0.01 54 1017.7
20260506182541 70 161 2.0 5.0 0.00 0.06 0.01 54 1017.9
20260506182015 70 126 1.0 10.0 0.00 0.06 0.01 54 1018.0
20260506181531 70 63 3.0 12.0 0.00 0.06 0.01 55 1018.1
20260506181026 70 24 7.0 12.0 0.00 0.06 0.01 55 1018.1
20260506180522 70 51 5.0 10.0 0.00 0.06 0.01 56 1018.1
20260506180015 69 110 4.0 13.0 0.00 0.06 0.01 58 1018.1
20260506175515 69 5 3.0 13.0 0.00 0.06 0.01 58 1018.2
20260506175030 68 5 1.0 5.0 0.00 0.06 0.01 60 1018.4
20260506174526 68 345 2.0 5.0 0.00 0.06 0.01 61 1018.4
20260506174021 68 219 2.0 5.0 0.00 0.06 0.01 59 1018.4
20260506173537 67 19 2.0 5.0 0.00 0.06 0.01 61 1018.5
20260506173031 66 61 2.0 6.0 0.00 0.06 0.01 62 1018.6
20260506172526 66 360 4.0 9.0 0.00 0.06 0.01 62 1018.5
20260506172022 66 56 3.0 13.0 0.00 0.06 0.01 61 1018.6
20260506171520 66 71 6.0 13.0 0.00 0.06 0.01 62 1018.6
20260506171015 66 77 2.0 11.0 0.00 0.06 0.01 62 1018.5
20260506170531 65 37 1.0 7.0 0.00 0.07 0.01 63 1018.5
20260506170026 65 360 5.0 7.0 0.00 0.07 0.01 62 1018.6
20260506165521 65 13 3.0 9.0 0.01 0.07 0.01 62 1018.6
20260506165037 65 109 3.0 10.0 0.01 0.07 0.01 61 1018.6
20260506164530 65 39 3.0 5.0 0.01 0.07 0.01 63 1018.6
20260506164046 64 268 2.0 7.0 0.01 0.07 0.01 64 1018.7
20260506163520 64 331 3.0 9.0 0.01 0.07 0.01 64 1018.6
20260506163018 64 96 4.0 9.0 0.01 0.07 0.01 65 1018.7
20260506162532 63 59 2.0 9.0 0.01 0.07 0.01 66 1018.8
20260506162048 63 63 2.0 6.0 0.01 0.07 0.01 68 1018.6
20260506161522 63 308 0.0 9.0 0.01 0.07 0.01 68 1018.8
20260506161037 63 96 2.0 6.0 0.01 0.07 0.01 68 1018.6
20260506160531 63 117 1.0 6.0 0.01 0.07 0.01 68 1018.7
20260506160025 62 109 1.0 6.0 0.01 0.07 0.01 69 1018.6
20260506155521 62 82 2.0 6.0 0.00 0.06 0.00 69 1018.7
20260506155036 61 167 2.0 7.0 0.00 0.06 0.00 70 1018.8
20260506154534 61 148 4.0 7.0 0.00 0.06 0.00 70 1018.8
20260506154027 61 217 3.0 5.0 0.00 0.06 0.00 71 1018.8
20260506153523 61 154 2.0 4.0 0.00 0.06 0.00 71 1018.8
20260506153017 60 146 3.0 5.0 0.00 0.06 0.00 72 1018.9
20260506152532 60 138 1.0 7.0 0.00 0.06 0.00 73 1018.9
20260506152028 60 143 3.0 7.0 0.00 0.06 0.00 72 1018.9
20260506151544 59 111 3.0 4.0 0.00 0.06 0.00 73 1018.8
20260506151039 59 139 2.0 4.0 0.00 0.06 0.00 73 1019.0
20260506150553 59 121 0.0 4.0 0.00 0.06 0.00 75 1018.9
20260506150047 58 160 1.0 4.0 0.00 0.06 0.00 75 1018.9
20260506145520 58 151 2.0 5.0 0.00 0.06 0.00 76 1018.9
20260506145019 58 162 1.0 5.0 0.00 0.06 0.00 77 1018.9
20260506144515 57 131 2.0 3.0 0.00 0.06 0.00 78 1018.9
20260506144030 57 127 2.0 3.0 0.00 0.06 0.00 78 1018.8
20260506143525 56 136 2.0 4.0 0.00 0.06 0.00 78 1018.9
20260506143039 56 137 1.0 4.0 0.00 0.06 0.00 79 1018.9
20260506142532 56 156 1.0 3.0 0.00 0.06 0.00 81 1018.9
20260506142027 55 80 2.0 3.0 0.00 0.06 0.00 83 1018.9
20260506141523 54 355 0.0 0.0 0.00 0.06 0.00 85 1018.9
20260506141017 53 355 0.0 0.0 0.00 0.06 0.00 87 1018.8
20260506140517 53 355 0.0 1.0 0.00 0.06 0.00 87 1018.8
20260506140031 52 355 0.0 1.0 0.00 0.06 0.00 89 1018.8
20260506135526 52 355 0.0 0.0 0.00 0.06 0.00 90 1018.8
20260506135021 52 355 0.0 0.0 0.00 0.06 0.00 91 1018.8
20260506134517 51 355 0.0 0.0 0.00 0.06 0.00 92 1018.7
20260506134032 50 355 0.0 0.0 0.00 0.06 0.00 92 1018.6
20260506133548 50 355 0.0 1.0 0.00 0.06 0.00 93 1018.6
20260506133022 50 355 0.0 1.0 0.00 0.06 0.00 93 1018.6
20260506132521 49 355 0.0 0.0 0.00 0.06 0.00 94 1018.5
20260506132015 49 355 0.0 0.0 0.00 0.06 0.00 93 1018.6
20260506131530 49 355 0.0 0.0 0.00 0.06 0.00 93 1018.6
20260506131025 49 355 0.0 0.0 0.00 0.06 0.00 93 1018.6
20260506130520 49 355 0.0 0.0 0.00 0.06 0.00 93 1018.4
20260506130014 49 355 0.0 0.0 0.00 0.06 0.00 92 1018.2
20260506125529 49 355 0.0 0.0 0.00 0.06 0.00 92 1018.3
20260506125024 49 355 0.0 0.0 0.00 0.06 0.00 92 1018.2
20260506124519 49 355 0.0 0.0 0.00 0.06 0.00 92 1018.2
20260506124018 49 355 0.0 0.0 0.00 0.06 0.00 92 1018.1
20260506123534 49 355 0.0 0.0 0.00 0.06 0.00 92 1018.1
20260506123027 49 355 0.0 0.0 0.00 0.06 0.00 92 1018.0
20260506122522 49 355 0.0 0.0 0.00 0.06 0.00 92 1018.1
20260506122018 49 355 0.0 0.0 0.00 0.06 0.00 92 1017.9
20260506121513 49 355 0.0 0.0 0.00 0.06 0.00 92 1017.9
20260506121028 49 355 0.0 0.0 0.00 0.06 0.00 92 1018.0
20260506120522 49 355 0.0 0.0 0.00 0.06 0.00 92 1017.9
20260506120017 49 355 0.0 0.0 0.00 0.06 0.00 91 1017.9
20260506115512 49 355 0.0 0.0 0.00 0.06 0.00 91 1017.8
20260506115032 50 355 0.0 0.0 0.00 0.06 0.00 92 1017.8
20260506114527 50 355 0.0 0.0 0.00 0.06 0.00 92 1017.8
20260506114023 50 355 0.0 0.0 0.00 0.06 0.00 92 1017.8
20260506113539 50 355 0.0 0.0 0.00 0.06 0.00 92 1017.8
20260506113032 50 355 0.0 0.0 0.00 0.06 0.00 92 1017.9
20260506112527 50 355 0.0 0.0 0.00 0.06 0.00 92 1017.7
20260506112022 50 355 0.0 0.0 0.00 0.06 0.00 92 1017.9
20260506111517 50 355 0.0 0.0 0.00 0.06 0.00 92 1017.8
20260506111032 50 355 0.0 0.0 0.00 0.06 0.00 93 1017.9
20260506110531 50 355 0.0 0.0 0.00 0.07 0.00 93 1017.8
20260506110026 50 355 0.0 0.0 0.00 0.07 0.00 93 1017.8
20260506105521 49 355 0.0 0.0 0.00 0.07 0.00 93 1017.8
20260506105016 49 355 0.0 0.0 0.00 0.07 0.00 93 1017.9
20260506104532 49 355 0.0 0.0 0.00 0.07 0.00 93 1017.8
20260506104027 49 355 0.0 0.0 0.00 0.07 0.00 92 1017.8
20260506103523 49 355 0.0 0.0 0.00 0.07 0.00 92 1017.7
20260506103021 49 355 0.0 0.0 0.00 0.07 0.00 91 1017.8
20260506102538 49 355 0.0 0.0 0.00 0.07 0.00 91 1017.7
20260506102034 49 355 0.0 0.0 0.00 0.07 0.00 91 1017.6
20260506101527 49 355 0.0 0.0 0.00 0.07 0.00 91 1017.7
20260506101022 49 355 0.0 0.0 0.00 0.07 0.00 91 1017.7
20260506100518 49 355 0.0 0.0 0.00 0.07 0.00 91 1017.6
20260506100012 49 355 0.0 0.0 0.00 0.07 0.00 91 1017.6